[[{"header":{"parameterUnit":"m.s-1","parameterCategory":1,"la1":30.2992,"la2":30.254,"lo1":-89.0895,"lo2":-89.0443,"dy":0.0025,"dx":0.0025,"nx":19,"ny":19,"refTime":"2026-03-07T09:00:00:Z","depth":0,"parameterNumber":2,"parameterNumberName":"U-component_of_WINDS"},"data":[0,0,0,-0.111,-0.1108,-0.099,-0.099,-0.0851,-0.085,0,0,0,0,0,0,0,0,0,0,0,-0.1154,-0.1154,-0.111,-0.1107,-0.099,-0.099,-0.0851,-0.085,0,0,0,0,0,0,0,0,0,0,0,-0.1155,-0.1154,-0.1153,-0.1107,-0.099,-0.099,-0.0852,-0.0935,0,0,0,0,0,0,0,0,0,0,-0.1047,-0.1098,-0.1154,-0.1153,-0.1106,-0.0991,-0.099,-0.0939,-0.093,-0.091,0,-0.0897,0,-0.0871,-0.0842,-0.0841,0,0,0,-0.11,-0.1106,-0.1066,-0.1153,-0.1105,-0.0991,-0.1041,-0.0934,-0.0924,-0.0898,-0.0895,-0.0889,-0.0869,-0.0841,-0.084,-0.0754,-0.0754,0,0,-0.1106,-0.1138,-0.1073,-0.106,-0.1081,-0.1045,-0.1037,-0.0928,-0.0925,-0.0894,-0.0886,-0.0867,-0.084,-0.0839,-0.0754,-0.0754,0,0,0,-0.113,-0.1143,-0.1105,-0.1066,-0.1044,-0.1042,-0.1033,-0.093,-0.0915,-0.0884,-0.0865,-0.0839,-0.0838,-0.0754,-0.0754,-0.0784,0,0,0,-0.1133,-0.1157,-0.1108,-0.1127,-0.1046,-0.0986,-0.1039,-0.0923,-0.0909,-0.0866,-0.0839,-0.0837,-0.0754,-0.0754,-0.0784,-0.0793,0,0,0,-0.1158,-0.1159,-0.1146,-0.1129,-0.1079,-0.0987,-0.0966,-0.0919,-0.0898,-0.0841,-0.0836,-0.0754,-0.0754,-0.0783,-0.0792,-0.078,0,0,0,-0.1194,-0.1174,-0.1147,-0.1117,-0.1081,-0.1007,-0.0966,-0.0909,-0.0864,-0.0839,-0.0754,-0.0754,-0.0783,-0.0791,-0.0779,-0.0775,-0.0777,0,0,-0.1187,-0.1175,-0.1154,-0.1126,-0.1067,-0.1023,-0.0965,-0.0893,-0.0857,-0.079,-0.0787,-0.0784,-0.0792,-0.0779,-0.0774,-0.0776,0,0,0,-0.1163,-0.1149,-0.1125,-0.1085,-0.1029,-0.0982,-0.0915,-0.0887,-0.0829,-0.083,-0.0775,-0.0779,-0.077,-0.0767,-0.0768,-0.0758,-0.0754,-0.0754,-0.0754,-0.1199,-0.1155,-0.1117,-0.1059,-0.1019,-0.0949,-0.0912,-0.0862,-0.0829,-0.0817,-0.0797,-0.0799,-0.0796,-0.0797,-0.0787,-0.0791,-0.0791,-0.0791,-0.0791,-0.1184,-0.1157,-0.1112,-0.106,-0.1012,-0.0967,-0.0897,-0.0875,-0.0824,-0.0811,-0.0801,-0.0791,-0.08,-0.0789,-0.0793,-0.0793,-0.0792,-0.0792,-0.0792,-0.1203,-0.1183,-0.115,-0.1084,-0.1038,-0.0978,-0.0931,-0.0888,-0.0848,-0.0838,-0.0811,-0.0811,-0.0804,-0.0828,-0.0828,-0.0828,-0.0828,-0.0828,-0.0828,-0.1237,-0.1199,-0.1166,-0.1104,-0.1071,-0.1021,-0.0948,-0.0913,-0.0864,-0.0836,-0.0836,-0.0803,-0.081,-0.0812,-0.0828,-0.0828,-0.0828,-0.0828,-0.0828,-0.1239,-0.1231,-0.1181,-0.1148,-0.1069,-0.1025,-0.0971,-0.0903,-0.0868,-0.0845,-0.0813,-0.0826,-0.0809,-0.0808,-0.081,-0.0824,-0.0824,-0.0824,-0.0824,-0.1256,-0.1243,-0.1181,-0.113,-0.1075,-0.102,-0.0961,-0.0902,-0.084,-0.0815,-0.0806,-0.0805,-0.0805,-0.0789,-0.0788,-0.0789,-0.0797,-0.0797,-0.0797,-0.1254,-0.1234,-0.1194,-0.1135,-0.107,-0.1014,-0.0956,-0.0897,-0.0825,-0.0795,-0.0794,-0.0795,-0.0792,-0.0794,-0.0766,-0.0766,-0.0767,0,0]},{"header":{"parameterUnit":"m.s-1","parameterCategory":1,"la1":30.2992,"la2":30.254,"lo1":-89.0895,"lo2":-89.0443,"dy":0.0025,"dx":0.0025,"nx":19,"ny":19,"refTime":"2026-03-07T09:00:00:Z","depth":0,"parameterNumber":3,"parameterNumberName":"V-component_of_WINDS"},"data":[0,0,0,1.8771,1.8772,1.8805,1.8805,1.8843,1.8844,0,0,0,0,0,0,0,0,0,0,0,1.8759,1.8759,1.8771,1.8772,1.8805,1.8805,1.8843,1.8844,0,0,0,0,0,0,0,0,0,0,0,1.8759,1.8759,1.8759,1.8772,1.8805,1.8805,1.8843,1.8819,0,0,0,0,0,0,0,0,0,0,1.8788,1.8774,1.8759,1.8759,1.8772,1.8805,1.8805,1.8818,1.8821,1.8826,0,1.8831,0,1.8838,1.8846,1.8846,0,0,0,1.8773,1.8772,1.8783,1.8759,1.8772,1.8805,1.879,1.882,1.8823,1.883,1.8832,1.8833,1.8839,1.8846,1.8846,1.8875,1.8875,0,0,1.8771,1.8763,1.8781,1.8785,1.878,1.8789,1.8791,1.8822,1.8823,1.8832,1.8834,1.8839,1.8846,1.8847,1.8875,1.8875,0,0,0,1.8765,1.8762,1.8772,1.8783,1.879,1.879,1.8793,1.8821,1.8826,1.8834,1.884,1.8846,1.8847,1.8875,1.8875,1.8872,0,0,0,1.8764,1.8758,1.8772,1.8767,1.8789,1.8806,1.8792,1.8824,1.8827,1.8839,1.8846,1.8847,1.8875,1.8875,1.8872,1.8871,0,0,0,1.8757,1.8757,1.8762,1.8766,1.8781,1.8806,1.8812,1.8825,1.883,1.8846,1.8847,1.8875,1.8875,1.8872,1.8871,1.8878,0,0,0,1.8747,1.8756,1.8761,1.8774,1.878,1.8804,1.8812,1.8829,1.8842,1.8847,1.8875,1.8875,1.8872,1.8871,1.8877,1.8882,1.8883,0,0,1.8754,1.8757,1.8765,1.877,1.8791,1.8799,1.8819,1.8838,1.8846,1.8865,1.8866,1.8872,1.8871,1.8878,1.889,1.8891,0,0,0,1.8764,1.877,1.8777,1.879,1.8806,1.8819,1.8836,1.8843,1.886,1.8854,1.8876,1.8875,1.888,1.8882,1.8883,1.8887,1.8876,1.8876,1.8876,1.8762,1.8774,1.8788,1.8804,1.8816,1.8835,1.8846,1.8858,1.8865,1.887,1.8875,1.8882,1.8884,1.8885,1.889,1.8878,1.8878,1.8878,1.8878,1.8774,1.8784,1.8795,1.8813,1.8825,1.8839,1.8858,1.8862,1.8878,1.8878,1.8882,1.8882,1.8886,1.889,1.8878,1.8878,1.8878,1.8878,1.8878,1.8774,1.8781,1.8791,1.8812,1.8826,1.8842,1.8857,1.8867,1.8876,1.8881,1.8888,1.8889,1.8891,1.8884,1.8884,1.8884,1.8884,1.8884,1.8884,1.877,1.8781,1.8793,1.8812,1.8823,1.8838,1.8858,1.8868,1.8882,1.8888,1.8888,1.8895,1.8884,1.8881,1.8884,1.8884,1.8884,1.8884,1.8884,1.8778,1.8778,1.8797,1.8808,1.8832,1.8847,1.886,1.8881,1.8891,1.8898,1.8904,1.8894,1.8897,1.8897,1.8895,1.8901,1.8901,1.8901,1.8901,1.8778,1.8782,1.8804,1.8821,1.8839,1.8853,1.8875,1.889,1.8906,1.8913,1.8914,1.8912,1.8911,1.8915,1.8914,1.8912,1.8923,1.8923,1.8923,1.8785,1.879,1.8807,1.8824,1.8844,1.8861,1.8882,1.89,1.8918,1.8924,1.8919,1.8918,1.8915,1.8914,1.8919,1.8917,1.8915,0,0]}]]